Wetbulb
51.83 51.05 50.96 51.05 51.13 50.75 51.04 50.96 51.30 51.50 52.00 52.46 53.19 53.46 53.40 53.19 52.73 53.06 55.80 56.95 54.68 52.40 52.80 53.39 56.57 55.26 55.97 57.35 53.99 56.32 55.59 56.39 56.10 52.15 52.02 52.08 50.53 53.01 50.70 52.84 51.91 51.04 50.15 49.63 50.57 48.28 46.52 58.02 57.57 55.78 59.71 63.26 62.69 62.63
51.56 50.95 50.65 50.83 51.07 51.14 51.07 51.05 51.76 52.07 52.17 52.38 53.13 53.46 53.37 53.00 52.69 52.51 54.24 57.79 56.25 53.83 53.40 56.89 56.48 57.74 57.68 56.36 56.10 58.13 56.03 56.35 57.53 54.62 54.46 54.85 50.81 53.43 51.07 47.15 54.29 48.55 52.18 51.62 51.56 52.48 55.47 58.31 58.18 60.47 62.39 62.51 62.60 62.19
51.48 50.85 50.72 50.77 50.96 51.17 51.24 51.54 51.72 51.87 52.03 52.63 52.78 53.15 53.15 52.88 52.20 51.57 53.98 55.53 55.82 54.15 53.73 54.99 54.55 57.75 59.29 59.47 60.68 54.75 57.77 57.52 59.56 59.15 57.17 55.68 51.62 54.70 48.91 49.98 51.57 54.10 55.64 53.03 52.59 55.16 55.43 57.36 59.54 60.93 61.60 60.74 60.92 60.46
51.44 50.83 50.64 50.73 50.94 51.11 51.25 51.48 51.66 51.87 52.12 52.55 52.88 53.04 53.02 52.68 52.02 50.91 54.34 56.36 55.57 54.12 49.16 52.85 59.83 56.84 59.73 59.59 58.84 58.73 58.46 59.72 59.94 58.81 56.03 54.58 52.05 55.65 51.66 52.73 52.18 54.92 55.79 54.85 53.36 55.17 55.88 57.35 58.75 58.96 58.64 59.05 58.39 58.64
51.26 50.88 50.82 50.78 50.95 51.03 51.27 51.44 51.61 51.81 51.95 52.57 52.72 52.76 52.76 52.50 51.76 52.47 56.37 58.25 57.74 53.03 49.06 50.23 54.10 56.52 59.69 59.30 58.27 58.47 57.65 56.92 56.12 53.99 52.99 51.93 56.37 54.22 55.19 53.72 51.33 55.21 54.57 53.41 52.74 57.38 57.27 56.87 58.03 58.47 57.19 56.90 57.45 56.86
51.10 50.97 50.64 50.70 51.04 51.05 51.21 51.43 51.65 51.61 51.87 52.31 52.40 52.51 52.25 52.42 51.63 54.92 54.61 57.88 59.51 56.73 51.74 48.36 54.31 56.48 58.83 58.37 57.65 57.14 58.54 57.82 55.89 54.36 53.13 56.38 56.20 53.92 50.20 49.49 54.74 55.55 56.97 58.40 57.33 59.28 59.24 58.53 58.22 57.86 56.32 56.13 56.20 56.34
50.79 50.70 50.57 50.68 50.91 50.89 51.16 51.64 51.60 51.68 51.81 51.98 51.83 51.72 51.78 51.78 54.83 52.81 52.51 54.23 52.35 57.26 52.16 48.80 49.90 56.65 57.41 57.59 57.79 57.17 57.96 58.16 55.82 54.56 53.60 53.63 54.41 52.93 51.24 48.38 53.30 55.90 57.05 57.46 59.53 59.27 56.54 56.78 55.11 56.35 56.23 56.21 56.01 56.30
50.73 50.56 50.47 50.74 50.76 50.95 51.08 51.26 51.25 51.59 51.90 51.67 51.53 51.44 51.19 51.10 50.81 55.04 57.65 54.25 54.89 54.95 53.81 47.47 47.90 52.01 57.12 54.39 53.43 58.50 55.32 56.23 55.22 53.17 55.71 52.18 53.91 53.08 48.26 52.42 54.12 56.20 56.97 57.85 58.05 59.26 57.96 57.19 56.43 56.18 56.86 56.32 54.73 54.23
50.61 50.46 50.37 50.66 50.62 50.73 51.07 51.26 51.46 51.55 51.32 51.11 51.29 51.56 54.71 55.06 56.74 56.41 53.93 53.33 58.29 54.68 49.61 50.62 46.15 47.44 57.85 55.55 56.64 55.81 56.35 50.58 56.29 51.45 51.21 53.18 49.74 47.68 51.08 53.40 55.05 56.71 56.89 56.66 57.34 56.89 55.67 55.19 55.34 55.71 55.62 55.05 54.54 54.67
50.48 50.48 50.59 50.56 50.39 50.74 51.05 51.21 51.16 51.11 50.59 50.99 54.24 54.39 52.90 56.44 53.09 55.26 54.04 53.81 53.28 53.89 53.04 48.36 52.51 46.86 52.59 54.21 52.93 55.24 54.42 50.85 49.10 51.82 55.52 50.08 48.79 53.38 54.07 54.86 57.41 58.10 58.42 57.17 54.53 53.38 54.47 54.26 55.20 55.16 55.11 56.09 55.71 55.51
50.54 50.56 50.52 50.29 50.18 50.56 50.80 51.08 51.14 50.59 51.51 53.74 50.82 51.16 53.62 54.74 55.92 54.83 51.13 49.90 51.45 48.35 51.82 51.38 51.60 49.03 55.06 50.32 51.93 55.48 51.93 52.60 45.93 49.20 49.99 48.93 48.45 52.59 55.33 55.32 57.62 58.88 58.66 55.91 56.57 56.77 56.57 56.54 55.77 55.22 54.55 54.69 55.67 55.84
50.78 50.51 50.17 50.18 49.95 50.21 50.97 51.26 50.78 51.83 51.08 49.43 48.46 49.42 51.43 53.83 52.75 47.95 48.25 50.31 48.36 47.13 53.43 51.16 52.34 53.56 53.84 55.43 52.65 53.91 48.83 50.98 43.89 53.06 49.30 46.05 51.79 54.41 54.89 55.74 57.35 58.16 58.07 57.33 57.37 56.21 56.40 56.43 56.13 55.29 55.37 55.47 56.12 56.92
50.70 50.40 50.17 49.83 49.89 50.21 50.81 51.00 50.36 50.38 51.02 52.12 49.06 48.82 49.77 50.68 40.44 42.86 41.67 46.64 47.60 51.98 52.94 53.11 51.38 54.71 54.50 54.22 51.62 50.70 45.35 46.94 51.53 47.23 46.41 49.09 52.19 52.95 55.19 56.45 56.83 57.62 57.07 56.52 56.21 56.78 56.85 55.90 56.03 55.35 54.97 56.80 56.72 56.05
50.68 50.20 50.00 49.93 50.08 50.47 50.92 50.19 50.33 51.25 51.06 49.80 46.19 38.09 45.96 44.80 47.64 49.20 48.28 48.66 51.39 53.01 52.99 53.75 53.53 53.18 54.59 51.54 52.65 44.29 49.47 50.51 44.08 42.76 44.10 51.60 53.71 54.35 54.24 55.46 55.94 54.32 54.56 54.69 55.65 56.11 55.55 55.73 55.34 55.64 56.28 57.73 56.78 55.58
50.34 50.17 50.02 49.90 50.33 50.51 50.15 50.05 50.32 53.44 51.42 47.79 47.59 40.01 46.03 51.36 52.26 50.56 51.89 50.91 51.97 55.14 53.90 53.35 53.05 52.63 51.94 48.73 50.28 47.98 43.77 39.95 43.47 44.54 49.14 53.14 54.84 55.81 55.68 55.53 54.92 55.19 55.50 55.65 56.01 55.32 55.34 55.67 55.40 55.64 56.27 57.17 56.99 56.68
49.99 49.55 50.70 49.76 49.94 49.74 49.71 51.15 53.03 52.09 48.96 46.34 46.05 45.43 49.62 48.71 49.98 51.72 51.66 51.64 55.72 55.33 54.55 51.79 49.72 47.62 47.15 49.16 45.59 44.09 42.82 41.98 47.12 52.23 54.25 55.20 55.01 55.70 55.21 55.23 53.65 53.84 55.05 54.99 55.49 55.80 56.30 56.05 55.85 55.78 56.19 56.71 56.83 56.66
48.62 50.31 47.38 48.91 49.19 49.59 50.41 52.01 52.27 46.44 45.99 44.35 46.80 50.37 49.37 49.44 49.27 51.65 52.83 52.27 55.67 53.47 50.19 51.48 45.64 44.98 51.00 46.33 44.40 49.71 46.02 49.93 52.51 53.75 55.71 56.82 56.35 56.20 56.18 55.08 54.77 55.06 55.85 56.51 56.53 57.05 56.84 57.22 57.15 56.49 55.53 56.64 56.60 57.57
49.25 51.98 47.36 49.08 50.04 51.20 52.88 52.26 49.50 46.44 43.67 48.33 47.67 51.82 51.77 51.99 51.09 52.11 53.98 55.51 53.70 54.48 52.85 49.41 52.04 46.80 45.73 43.12 46.71 50.98 53.14 55.45 56.14 56.37 55.51 55.74 55.87 56.04 56.10 56.19 56.83 57.38 57.21 57.10 56.88 56.84 57.07 56.64 55.81 55.11 56.56 57.45 57.10 56.74
50.72 50.88 49.87 49.61 49.83 48.05 46.93 48.13 50.29 43.60 47.13 50.69 50.93 51.66 51.60 51.64 53.16 53.63 53.56 53.72 54.62 55.77 54.66 53.12 48.39 48.30 49.15 51.45 51.49 53.39 54.06 54.81 54.64 55.23 55.98 56.77 57.07 56.80 56.61 57.01 57.09 56.91 56.39 56.58 56.75 55.33 55.64 56.83 56.42 56.87 56.22 56.38 54.79 55.06
49.58 49.40 49.50 50.36 50.51 46.72 44.06 47.35 52.51 47.06 45.93 50.08 51.61 50.17 50.89 51.18 53.21 53.48 53.12 53.66 54.09 54.73 51.38 49.49 49.55 50.99 51.82 53.49 55.19 54.76 56.30 57.18 55.68 53.28 53.41 56.82 57.59 57.39 56.82 56.35 55.66 56.67 56.03 56.46 56.52 50.03 55.74 55.42 56.15 56.46 56.60 56.06 55.05 54.42
47.88 51.13 50.99 51.20 49.51 47.68 45.60 46.96 46.66 48.61 48.74 48.50 51.28 50.78 50.57 53.53 51.92 52.26 52.55 55.72 52.02 50.46 49.68 52.52 54.37 55.90 57.00 57.14 58.04 57.88 57.26 55.45 53.56 53.73 53.11 53.36 56.97 56.44 55.54 56.26 57.66 56.11 54.16 54.13 53.00 53.25 49.80 53.68 55.17 57.31 56.40 56.54 56.16 55.95
50.95 49.17 51.52 50.66 47.50 47.14 45.67 48.98 47.09 49.11 47.40 48.99 49.27 50.82 50.32 51.29 53.03 54.04 56.10 52.06 52.47 53.65 55.66 56.15 56.06 57.09 56.55 56.51 55.89 57.44 56.73 57.05 57.10 53.77 48.49 51.27 55.29 54.99 55.07 55.25 54.98 54.47 54.67 53.74 54.30 53.93 54.48 56.26 56.91 56.77 56.16 56.00 52.97 56.02
48.54 49.25 49.42 48.10 44.55 42.15 42.20 50.08 44.51 47.50 45.26 49.19 51.60 49.25 51.01 52.77 55.46 56.24 52.65 54.60 55.50 58.48 58.38 57.56 57.79 58.17 56.89 56.50 56.97 57.12 57.82 56.78 55.44 56.01 55.62 56.48 57.06 57.36 56.29 56.15 57.16 55.52 54.22 54.83 56.38 55.43 55.99 49.94 54.14 55.05 55.20 55.18 54.79 54.87
47.49 46.92 43.22 43.23 43.82 40.30 46.79 43.82 47.75 46.84 48.62 48.32 48.55 47.82 50.49 53.88 56.30 53.21 50.78 53.46 56.24 57.21 55.79 56.67 56.68 54.97 55.05 55.53 54.65 55.52 56.85 57.96 56.89 56.66 57.12 55.97 54.53 54.81 55.89 55.69 56.11 56.52 56.60 57.10 56.36 56.05 56.43 56.05 49.98 55.29 55.00 54.49 53.60 53.66
40.80 39.76 41.19 35.93 44.54 42.07 40.18 42.73 44.99 45.79 44.59 48.23 47.64 49.34 51.65 55.41 50.82 50.23 50.36 53.81 55.92 55.85 55.22 55.93 55.89 54.44 52.29 52.97 54.36 55.37 57.58 56.78 55.66 55.61 56.40 56.30 56.30 55.96 54.88 55.42 55.80 56.40 57.43 55.82 55.36 55.14 54.49 55.93 56.07 55.44 55.24 55.79 53.72 53.20
35.90 41.94 38.73 41.52 42.92 41.41 42.58 41.21 44.72 45.81 46.72 46.80 49.41 53.31 54.45 51.57 47.22 46.51 52.84 55.49 57.13 56.54 55.02 54.19 53.80 53.57 53.24 54.49 54.13 54.62 55.98 57.81 57.59 56.08 57.52 57.44 56.37 54.58 54.56 54.36 53.65 54.27 56.89 56.82 55.66 54.22 53.74 54.09 55.05 53.63 54.11 52.67 44.26 52.34
35.64 39.58 44.31 48.19 46.02 45.59 44.90 47.25 48.37 47.95 46.04 46.04 49.99 49.96 50.52 45.75 46.09 51.32 56.09 57.70 58.09 59.65 57.40 55.92 55.15 54.25 54.27 55.04 56.18 57.69 58.64 58.60 58.09 57.72 59.61 58.97 58.47 58.31 56.87 54.76 53.26 55.29 57.47 56.91 55.81 54.33 53.48 53.07 52.97 53.81 54.21 54.92 55.13 54.94
41.83 43.13 39.63 42.70 43.59 45.90 42.04 43.39 45.48 46.27 48.72 52.84 52.19 47.76 47.05 47.82 48.76 53.31 55.70 58.33 58.94 61.13 58.98 57.00 56.91 56.58 56.41 56.67 57.14 57.38 57.73 58.19 58.42 58.37 58.43 58.40 58.96 59.09 59.29 59.18 59.34 44.28 57.39 57.56 56.26 55.64 54.69 54.10 53.96 54.48 54.54 54.55 54.91 55.70
41.24 43.66 43.52 40.87 42.32 43.34 44.03 44.42 46.94 51.22 54.12 53.26 50.81 49.87 50.02 56.38 57.39 55.91 56.98 57.17 59.26 58.73 57.97 56.18 55.90 56.97 57.01 57.47 57.95 58.05 57.94 57.34 56.10 54.69 54.47 54.09 54.59 56.25 58.97 58.99 58.09 56.79 56.59 55.97 43.05 49.54 55.40 55.21 55.04 55.18 55.48 55.63 55.94 56.61
41.65 44.56 41.23 41.13 40.60 42.21 46.07 49.43 49.46 52.43 54.05 53.69 53.87 53.19 53.45 54.57 56.40 58.42 57.71 57.58 56.89 57.10 57.97 58.52 58.20 56.89 55.58 55.02 54.67 55.96 57.98 57.69 57.22 55.58 53.93 54.27 55.75 57.65 58.39 58.55 58.58 57.64 57.03 56.38 55.83 55.60 39.41 49.02 51.57 53.84 54.26 55.85 56.24 55.95
43.98 42.41 40.71 42.41 43.53 47.04 49.03 50.76 51.60 52.18 52.17 51.77 53.09 51.51 51.52 53.69 55.79 57.45 57.40 57.85 58.01 57.93 57.72 57.42 58.09 58.89 58.17 57.18 55.47 54.50 54.61 57.44 58.23 58.48 58.55 58.10 58.27 57.68 58.25 58.73 58.85 58.60 57.65 56.88 56.41 55.64 55.49 54.96 55.29 55.00 55.43 55.43 55.54 53.52
42.29 41.13 41.04 40.27 45.13 50.50 51.38 49.63 49.04 48.24 49.17 49.04 49.24 51.38 51.86 51.68 50.56 54.06 57.06 57.22 56.74 56.35 54.75 56.00 57.44 57.74 60.06 59.97 58.60 57.33 48.86 57.96 58.86 59.14 59.11 58.69 58.53 59.03 59.26 59.29 59.00 58.71 58.40 57.39 56.75 56.11 55.76 55.30 54.94 54.98 55.22 55.37 55.41 55.37
44.40 45.20 45.58 45.01 45.13 45.54 48.55 48.76 48.59 48.36 49.75 49.10 49.60 50.46 50.80 50.72 49.64 54.51 58.55 60.07 58.42 57.64 56.84 57.63 58.94 59.57 60.07 60.86 59.31 57.48 51.97 58.80 55.66 45.00 44.04 44.18 42.77 49.83 58.41 59.25 59.03 58.38 58.01 57.43 56.91 56.52 56.05 55.90 55.46 55.84 55.79 55.34 55.25 55.59
MSLP
1025.65 1025.36 1025.03 1024.67 1024.29 1023.92 1023.50 1023.04 1022.53 1022.02 1021.51 1020.95 1020.43 1019.89 1019.39 1018.95 1018.54 1017.77 1016.08 1016.18 1015.25 1012.92 1011.07 1010.72 1010.13 1009.44 1008.74 1008.24 1007.20 1007.38 1007.02 1006.39 1005.80 1005.11 1004.40 1003.68 1003.78 1003.54 1004.15 1004.03 1004.28 1004.26 1004.06 1003.80 1004.01 1004.25 1004.43 1005.35 1005.94 1005.66 1005.94 1005.84 1006.42 1007.32
1025.55 1025.25 1024.93 1024.58 1024.21 1023.85 1023.43 1022.97 1022.49 1021.93 1021.40 1020.92 1020.37 1019.85 1019.42 1019.07 1018.71 1018.16 1015.98 1016.07 1016.27 1014.62 1011.61 1011.51 1010.88 1010.61 1010.37 1009.78 1009.04 1008.03 1007.80 1007.47 1007.09 1006.10 1005.67 1005.09 1004.83 1004.88 1004.55 1004.23 1005.67 1005.52 1005.11 1005.28 1005.59 1005.70 1007.09 1007.16 1007.14 1007.20 1006.92 1007.11 1007.57 1008.43
1025.46 1025.16 1024.85 1024.48 1024.13 1023.77 1023.35 1022.87 1022.37 1021.85 1021.29 1020.76 1020.20 1019.73 1019.32 1019.02 1018.80 1018.57 1016.91 1016.38 1015.39 1013.61 1011.31 1010.56 1009.61 1010.05 1010.15 1010.04 1009.55 1008.75 1008.24 1008.64 1008.30 1008.71 1007.06 1006.12 1005.77 1005.52 1004.76 1004.78 1005.15 1006.38 1006.86 1006.38 1007.07 1007.39 1007.77 1007.91 1008.05 1008.13 1008.29 1008.67 1009.31 1009.94
1025.21 1024.97 1024.71 1024.35 1023.99 1023.60 1023.15 1022.73 1022.25 1021.72 1021.12 1020.53 1019.99 1019.51 1019.12 1018.85 1018.65 1018.52 1017.03 1016.48 1015.70 1014.29 1011.99 1009.64 1009.97 1009.84 1010.03 1009.79 1009.76 1009.34 1009.00 1009.24 1008.98 1008.59 1007.49 1006.72 1006.25 1006.57 1005.63 1005.52 1005.54 1005.84 1007.01 1006.69 1007.32 1008.15 1008.63 1008.74 1008.94 1009.28 1009.71 1010.15 1010.55 1010.98
1025.02 1024.79 1024.49 1024.14 1023.82 1023.39 1022.96 1022.52 1021.99 1021.44 1020.86 1020.29 1019.72 1019.25 1018.83 1018.55 1018.34 1017.92 1017.00 1016.59 1016.43 1015.67 1013.01 1010.63 1009.72 1009.46 1009.55 1009.58 1009.52 1009.44 1009.11 1008.92 1008.45 1008.05 1007.51 1006.90 1006.93 1007.37 1006.76 1006.43 1005.56 1006.08 1006.01 1006.44 1005.77 1007.15 1007.66 1008.78 1009.57 1009.98 1010.29 1010.73 1011.23 1011.74
1024.74 1024.52 1024.24 1023.92 1023.58 1023.18 1022.75 1022.31 1021.76 1021.13 1020.49 1019.87 1019.31 1018.84 1018.51 1018.21 1018.01 1016.94 1015.76 1016.38 1016.45 1016.19 1014.22 1011.20 1009.87 1009.58 1009.58 1009.49 1009.40 1009.42 1009.19 1009.12 1008.78 1008.00 1007.48 1007.23 1008.30 1008.15 1006.44 1005.78 1005.43 1005.81 1006.66 1006.47 1006.63 1007.49 1007.89 1009.11 1009.86 1010.24 1010.80 1011.34 1011.90 1012.40
1024.63 1024.38 1024.08 1023.76 1023.41 1022.99 1022.53 1022.05 1021.46 1020.78 1020.07 1019.44 1018.88 1018.39 1018.05 1017.87 1017.18 1016.76 1016.78 1016.97 1017.18 1016.38 1014.28 1011.71 1009.54 1009.59 1009.91 1009.56 1009.31 1009.19 1009.46 1008.95 1008.87 1008.03 1007.88 1007.67 1008.01 1008.50 1006.95 1005.90 1005.73 1006.27 1006.85 1007.50 1007.38 1007.96 1008.84 1009.54 1010.05 1010.74 1011.36 1012.10 1012.71 1013.07
1024.40 1024.20 1023.94 1023.64 1023.25 1022.80 1022.30 1021.73 1021.08 1020.38 1019.62 1018.90 1018.31 1017.89 1017.72 1017.63 1017.64 1016.85 1016.84 1017.19 1017.05 1015.70 1014.47 1012.30 1010.06 1009.49 1009.87 1008.81 1008.65 1009.08 1008.65 1008.78 1008.57 1008.04 1008.11 1007.77 1007.68 1007.93 1006.65 1006.20 1006.24 1006.82 1007.24 1007.69 1008.31 1008.39 1008.93 1009.64 1010.63 1011.35 1011.94 1012.42 1012.82 1013.20
1024.15 1023.98 1023.74 1023.43 1023.06 1022.62 1022.11 1021.52 1020.80 1019.97 1019.10 1018.32 1017.78 1017.54 1017.00 1016.95 1016.22 1016.29 1017.21 1017.24 1016.42 1015.94 1013.72 1012.40 1010.79 1009.16 1009.81 1009.15 1009.04 1009.06 1008.85 1008.05 1008.30 1007.85 1007.43 1007.70 1007.00 1006.68 1006.33 1006.35 1006.86 1007.19 1007.35 1007.87 1008.45 1008.63 1009.55 1010.08 1010.79 1011.48 1011.93 1012.51 1012.87 1013.28
1023.82 1023.62 1023.39 1023.14 1022.83 1022.41 1021.91 1021.37 1020.66 1019.66 1018.64 1017.68 1017.13 1016.61 1015.83 1016.20 1017.10 1016.84 1016.83 1015.79 1015.22 1014.60 1014.09 1012.45 1011.64 1010.53 1010.47 1009.56 1009.21 1008.96 1008.69 1007.81 1007.47 1007.07 1007.59 1007.44 1006.51 1006.46 1006.57 1007.03 1007.08 1007.66 1007.63 1008.26 1008.56 1009.18 1009.81 1010.53 1011.17 1011.73 1012.23 1012.64 1013.22 1013.66
1023.50 1023.35 1023.12 1022.81 1022.51 1022.16 1021.69 1021.23 1020.64 1019.49 1017.99 1017.45 1017.34 1017.11 1016.89 1016.68 1016.06 1015.12 1014.60 1014.18 1013.62 1013.09 1012.70 1012.26 1011.78 1011.16 1010.93 1010.74 1010.19 1010.08 1009.30 1008.57 1007.81 1007.38 1007.56 1006.47 1006.35 1006.37 1007.41 1007.69 1007.67 1008.03 1008.22 1008.72 1009.02 1009.61 1010.23 1010.84 1011.49 1012.10 1012.71 1013.16 1013.68 1013.99
1023.14 1022.96 1022.82 1022.63 1022.29 1021.91 1021.51 1021.08 1020.68 1019.58 1019.32 1019.76 1019.86 1019.19 1017.94 1015.90 1014.80 1014.27 1013.41 1013.13 1012.84 1012.31 1012.41 1012.20 1012.11 1011.90 1011.64 1011.88 1010.92 1010.52 1009.79 1009.29 1008.49 1008.49 1007.77 1006.86 1007.54 1008.22 1008.26 1008.06 1008.09 1008.20 1008.46 1008.94 1009.61 1010.22 1010.93 1011.59 1012.19 1012.66 1013.11 1013.45 1013.79 1014.11
1022.78 1022.66 1022.45 1022.24 1022.02 1021.66 1021.30 1021.02 1020.70 1020.37 1019.63 1019.35 1019.36 1018.03 1016.72 1015.23 1014.34 1013.21 1012.31 1012.42 1012.33 1012.36 1012.45 1012.30 1011.95 1011.79 1011.72 1011.76 1011.13 1010.70 1010.00 1009.58 1009.29 1008.50 1007.59 1007.67 1008.86 1009.10 1009.08 1008.85 1008.83 1009.06 1009.37 1009.83 1010.45 1011.16 1011.79 1012.40 1012.90 1013.19 1013.41 1013.71 1013.92 1014.08
1022.39 1022.25 1022.11 1021.90 1021.61 1021.26 1021.04 1020.75 1020.41 1019.79 1019.21 1018.12 1017.71 1016.91 1015.33 1013.88 1013.16 1012.60 1012.46 1012.50 1012.52 1012.60 1012.40 1012.20 1011.82 1011.47 1011.31 1011.13 1010.89 1010.52 1010.10 1009.81 1009.01 1008.29 1007.67 1008.23 1009.39 1009.92 1010.21 1010.15 1010.29 1010.65 1011.06 1011.28 1011.49 1011.89 1012.34 1012.73 1013.10 1013.42 1013.62 1013.76 1013.93 1014.02
1022.02 1021.81 1021.65 1021.29 1021.22 1021.04 1020.77 1020.38 1020.02 1019.17 1018.32 1017.32 1016.97 1015.62 1014.10 1013.33 1012.99 1013.05 1013.07 1012.92 1012.75 1012.67 1012.66 1012.24 1011.92 1011.46 1011.13 1010.89 1010.53 1010.20 1009.78 1009.42 1008.88 1008.42 1008.51 1009.32 1010.13 1010.51 1010.87 1011.16 1011.27 1011.44 1011.65 1011.80 1012.05 1012.37 1012.68 1012.86 1013.14 1013.29 1013.52 1013.65 1013.79 1013.90
1021.76 1021.41 1020.85 1021.09 1021.02 1020.74 1020.33 1019.59 1019.27 1019.16 1018.53 1017.77 1016.82 1014.92 1013.60 1013.15 1012.44 1012.35 1012.39 1012.07 1012.26 1012.64 1012.63 1012.62 1011.68 1011.10 1010.65 1010.45 1010.07 1009.55 1009.00 1008.54 1008.81 1009.00 1009.24 1009.89 1010.62 1010.99 1011.32 1011.65 1012.28 1012.62 1012.57 1012.53 1012.53 1012.62 1012.82 1012.99 1013.08 1013.10 1013.25 1013.35 1013.39 1013.42
1021.71 1020.68 1020.94 1020.99 1020.79 1020.24 1019.79 1019.40 1018.72 1018.63 1017.75 1016.97 1015.34 1014.31 1013.69 1013.09 1012.46 1012.11 1012.12 1011.98 1012.23 1012.14 1011.93 1011.75 1011.18 1010.45 1010.55 1010.13 1009.43 1009.09 1009.04 1009.08 1008.99 1009.23 1009.62 1010.30 1010.74 1011.16 1011.53 1011.85 1012.09 1012.31 1012.42 1012.39 1012.46 1012.64 1012.69 1012.84 1012.88 1012.91 1012.89 1012.94 1013.02 1013.07
1020.84 1020.19 1020.83 1020.82 1020.54 1019.50 1018.97 1018.73 1018.08 1017.64 1016.58 1015.38 1014.34 1013.16 1013.04 1012.81 1012.32 1011.83 1011.71 1011.82 1012.00 1011.65 1011.73 1011.53 1011.35 1010.41 1009.81 1009.47 1009.21 1009.62 1009.52 1009.68 1009.49 1009.47 1009.85 1010.47 1010.88 1011.14 1011.32 1011.38 1011.59 1011.86 1012.05 1012.21 1012.28 1012.33 1012.47 1012.58 1012.61 1012.48 1012.44 1012.50 1012.43 1012.13
1020.24 1020.44 1020.60 1020.62 1020.58 1020.19 1018.90 1018.21 1017.95 1016.78 1015.30 1014.36 1013.83 1013.40 1012.99 1012.45 1012.07 1011.98 1011.81 1011.84 1011.94 1011.84 1011.71 1011.41 1010.70 1009.93 1009.73 1009.87 1009.86 1009.71 1009.72 1009.76 1009.71 1009.68 1009.88 1010.44 1010.71 1010.99 1011.27 1011.36 1011.41 1011.70 1011.84 1012.03 1012.29 1012.10 1011.76 1012.04 1011.70 1011.73 1011.67 1011.74 1011.56 1011.39
1020.77 1020.59 1020.41 1020.24 1020.24 1019.71 1018.62 1017.56 1017.53 1016.46 1014.93 1013.88 1013.71 1013.05 1012.52 1011.98 1011.59 1011.49 1011.27 1011.26 1011.36 1011.48 1011.14 1010.64 1009.94 1009.45 1009.73 1009.74 1009.64 1009.48 1009.66 1009.55 1009.33 1009.50 1009.90 1010.60 1010.85 1011.03 1011.09 1011.00 1010.84 1011.37 1011.44 1011.69 1011.76 1012.29 1011.50 1011.51 1011.36 1011.41 1011.25 1011.36 1011.61 1011.25
1020.44 1019.81 1020.06 1020.07 1019.76 1019.58 1018.86 1017.38 1016.45 1015.63 1014.78 1013.88 1013.06 1012.78 1011.89 1011.39 1011.24 1010.80 1010.68 1010.90 1010.96 1010.14 1009.69 1009.39 1009.77 1009.86 1010.12 1009.94 1009.97 1009.87 1009.87 1009.82 1009.48 1009.53 1009.61 1010.29 1010.82 1010.43 1010.66 1010.82 1011.34 1010.82 1010.63 1011.08 1011.22 1011.00 1011.28 1010.77 1010.80 1010.86 1010.87 1010.84 1011.16 1011.37
1019.63 1019.95 1019.53 1019.63 1019.25 1018.78 1018.29 1017.15 1016.42 1015.67 1015.08 1013.43 1012.94 1012.36 1011.35 1010.55 1010.15 1010.26 1010.56 1010.38 1009.56 1008.98 1009.00 1009.31 1009.56 1009.67 1009.92 1010.01 1009.96 1010.26 1010.29 1010.29 1010.31 1010.25 1010.45 1010.52 1010.60 1010.74 1010.22 1010.35 1010.43 1010.17 1010.19 1010.23 1010.28 1010.26 1010.34 1010.28 1010.48 1010.59 1010.75 1010.65 1010.75 1010.44
1020.01 1019.80 1019.12 1018.93 1018.45 1017.95 1017.31 1016.74 1016.06 1014.92 1013.99 1012.63 1012.27 1011.56 1010.63 1010.17 1010.04 1010.46 1009.58 1008.87 1008.49 1008.82 1009.13 1009.41 1009.78 1009.95 1009.70 1010.11 1010.23 1010.24 1010.27 1010.15 1009.70 1009.81 1010.01 1009.87 1009.97 1010.13 1010.11 1010.18 1010.19 1010.01 1009.78 1009.82 1010.09 1010.02 1010.07 1010.72 1010.75 1010.81 1010.42 1010.46 1010.21 1009.98
1020.02 1019.22 1018.56 1017.98 1017.64 1016.98 1016.28 1015.65 1015.06 1014.25 1013.06 1012.15 1011.22 1010.29 1009.74 1009.59 1009.79 1009.25 1008.51 1007.73 1007.82 1008.59 1009.02 1009.49 1009.47 1009.48 1009.79 1009.99 1009.53 1009.49 1009.71 1009.77 1009.53 1009.64 1009.77 1009.72 1009.38 1009.66 1009.86 1009.77 1009.75 1009.88 1009.88 1009.77 1009.81 1009.86 1009.84 1009.89 1010.29 1009.94 1009.84 1009.67 1009.87 1009.58
1019.46 1018.85 1018.50 1017.74 1016.91 1016.41 1015.46 1014.40 1013.64 1013.03 1012.13 1011.25 1010.50 1009.57 1009.31 1009.51 1008.93 1008.23 1007.49 1006.87 1007.42 1007.87 1008.36 1008.94 1008.90 1008.75 1008.63 1008.66 1008.77 1009.10 1009.62 1009.38 1008.85 1008.77 1008.93 1009.23 1009.11 1009.24 1009.31 1009.31 1009.41 1009.38 1009.39 1009.54 1009.70 1009.58 1009.56 1009.49 1009.48 1009.46 1009.44 1009.49 1009.59 1009.47
1018.56 1017.50 1017.35 1016.11 1015.47 1015.19 1014.30 1013.46 1012.29 1011.63 1011.29 1010.45 1009.56 1009.32 1009.12 1008.84 1008.26 1007.45 1006.77 1006.59 1006.85 1007.24 1007.75 1008.07 1008.18 1008.29 1008.25 1008.24 1008.18 1008.43 1008.63 1008.96 1008.96 1008.70 1008.44 1008.68 1008.65 1008.48 1008.22 1008.30 1008.21 1008.23 1008.94 1009.17 1008.92 1009.00 1009.10 1009.29 1009.31 1009.47 1009.28 1009.46 1009.89 1009.50
1017.58 1016.36 1015.89 1015.53 1015.01 1014.60 1013.78 1012.66 1011.97 1011.14 1010.36 1009.53 1009.12 1008.79 1008.62 1008.09 1007.51 1007.24 1006.83 1007.04 1006.81 1006.95 1007.24 1007.55 1007.71 1007.67 1007.50 1007.70 1008.00 1008.13 1008.34 1008.57 1008.59 1008.31 1008.34 1008.38 1008.30 1008.40 1008.36 1008.11 1008.20 1008.62 1008.89 1009.02 1009.15 1009.12 1009.19 1009.22 1009.18 1009.18 1009.11 1008.92 1008.74 1008.62
1016.53 1015.79 1015.29 1014.86 1014.49 1013.88 1013.30 1012.33 1010.96 1009.80 1009.15 1009.08 1008.88 1008.04 1007.70 1007.18 1007.46 1007.67 1007.34 1007.31 1007.17 1007.08 1007.08 1007.24 1007.43 1007.38 1007.21 1007.19 1007.34 1007.56 1007.90 1008.06 1008.12 1008.28 1008.25 1008.12 1008.01 1008.05 1008.28 1008.39 1008.67 1009.31 1008.86 1008.95 1009.03 1009.16 1009.33 1009.31 1009.33 1009.19 1008.98 1008.77 1008.61 1008.47
1016.13 1015.50 1015.18 1014.44 1013.91 1013.16 1012.34 1011.55 1010.12 1008.90 1008.80 1008.46 1007.98 1007.69 1007.71 1007.50 1007.61 1007.24 1007.00 1006.97 1007.01 1006.78 1006.58 1006.59 1006.73 1006.90 1006.94 1007.06 1007.17 1007.23 1007.15 1007.07 1007.08 1007.11 1007.08 1006.45 1006.32 1006.78 1007.50 1007.83 1008.07 1008.75 1008.77 1008.89 1009.49 1009.50 1009.37 1009.41 1009.58 1009.58 1009.17 1008.76 1008.37 1008.17
1014.94 1014.89 1014.46 1013.74 1012.98 1011.73 1010.73 1010.20 1009.50 1009.02 1008.64 1008.51 1008.32 1008.04 1007.59 1007.10 1006.94 1006.84 1006.53 1006.32 1006.03 1005.84 1005.78 1005.67 1005.65 1005.74 1005.92 1005.98 1005.92 1005.95 1006.26 1006.40 1006.41 1006.17 1005.93 1005.78 1005.75 1006.12 1006.73 1007.16 1007.42 1007.72 1008.05 1008.10 1008.21 1008.59 1009.78 1009.74 1009.45 1009.40 1008.98 1008.20 1007.56 1007.39
1014.19 1014.31 1013.88 1012.81 1011.46 1010.59 1010.07 1009.70 1009.23 1008.87 1008.54 1008.23 1007.99 1007.56 1006.96 1006.64 1006.32 1006.08 1005.82 1005.50 1005.45 1005.14 1005.00 1004.87 1004.84 1004.85 1004.95 1004.99 1004.99 1005.02 1005.00 1005.20 1005.71 1006.02 1006.32 1006.11 1005.98 1006.17 1006.45 1006.71 1006.92 1007.11 1007.32 1007.59 1007.72 1007.88 1008.13 1008.30 1008.26 1008.13 1007.67 1007.50 1007.32 1007.38
1013.33 1013.04 1012.61 1011.68 1010.31 1009.52 1009.42 1008.96 1008.39 1007.93 1007.36 1007.04 1006.65 1006.41 1006.11 1005.81 1005.22 1004.81 1004.27 1004.16 1004.34 1004.20 1004.09 1004.16 1003.90 1003.82 1004.01 1004.27 1004.35 1004.44 1004.70 1004.53 1004.91 1005.53 1006.10 1005.93 1005.98 1006.09 1006.21 1006.41 1006.48 1006.59 1006.71 1006.90 1007.11 1007.25 1007.41 1007.62 1007.51 1007.24 1007.05 1006.93 1007.01 1006.96
1011.80 1011.44 1011.13 1010.63 1009.58 1008.76 1008.09 1007.97 1007.23 1006.64 1006.02 1005.63 1005.16 1004.96 1004.67 1004.50 1004.19 1003.80 1003.36 1003.40 1003.55 1003.31 1003.05 1003.01 1003.12 1003.37 1003.64 1003.55 1003.68 1003.75 1004.30 1004.34 1004.86 1005.42 1005.79 1006.09 1006.38 1006.30 1006.00 1005.84 1006.01 1006.40 1006.42 1006.45 1006.45 1006.57 1006.78 1006.92 1006.94 1006.87 1006.83 1006.77 1006.82 1006.77
Wind_Speed
11 12 13 14 15 16 16 17 17 18 19 19 18 17 17 17 16 10 3 5 6 4 6 4 3 4 3 2 5 7 6 6 4 6 5 6 8 4 5 8 7 12 12 12 11 17 21 5 5 8 5 10 15 16
10 11 12 13 14 15 16 16 17 17 18 18 18 17 16 15 14 14 3 2 5 6 6 5 11 12 10 6 6 1 5 3 6 5 3 3 6 3 7 10 5 7 6 8 5 6 4 2 4 1 7 11 13 12
10 11 12 13 14 15 16 17 18 18 18 18 18 18 16 13 11 9 5 5 4 5 6 6 3 3 5 9 8 5 4 3 2 4 4 3 6 3 7 9 5 4 3 6 4 5 3 6 8 10 12 14 14 13
9 10 12 13 14 15 16 16 17 18 18 18 18 18 15 12 8 7 4 4 5 5 5 4 2 1 1 6 7 7 5 2 2 4 4 5 7 2 8 5 7 4 7 6 3 6 7 9 10 13 13 13 13 11
9 10 11 12 13 14 15 16 17 18 19 19 18 17 15 11 7 7 3 2 3 6 6 7 11 1 6 6 7 5 6 5 4 5 6 7 2 4 4 5 9 8 9 8 5 14 4 14 12 12 11 10 10 10
8 9 11 12 13 15 16 17 18 19 19 19 19 17 13 9 5 5 5 3 0 5 5 5 5 2 2 5 7 6 3 3 5 5 6 3 2 6 6 10 9 4 4 6 2 14 10 15 12 10 10 10 8 8
9 10 11 12 13 14 16 17 18 19 20 19 18 16 11 4 5 4 6 5 4 4 4 5 3 5 1 3 5 5 5 3 4 5 5 9 5 5 9 11 6 6 6 5 8 13 16 15 11 10 9 10 6 6
9 10 11 12 13 14 15 17 18 20 21 21 18 12 3 3 6 3 4 2 5 5 4 5 4 4 1 5 7 3 5 5 6 6 2 7 5 5 7 8 6 5 6 11 13 14 14 13 13 10 8 7 5 3
9 10 11 12 13 14 16 17 19 21 23 22 13 4 5 5 2 4 7 4 4 5 4 3 5 4 2 3 2 4 3 6 3 6 7 3 7 7 5 7 8 10 14 15 12 14 15 13 11 8 6 4 0 2
9 10 11 12 13 14 15 17 19 22 23 16 6 5 3 3 7 6 4 5 6 5 4 5 2 6 4 4 4 1 4 5 4 5 3 6 9 8 6 3 5 12 13 15 17 14 13 11 8 6 3 2 1 2
9 10 11 12 13 14 16 16 16 22 9 4 5 3 6 6 5 4 3 4 3 4 4 3 4 6 1 4 2 2 2 2 4 4 3 4 5 5 4 4 7 12 13 11 10 11 10 9 7 5 4 3 2 2
9 9 11 12 13 13 15 11 13 9 7 8 5 5 4 5 3 4 3 2 3 2 1 3 2 3 1 3 3 1 3 2 2 1 3 4 7 5 3 6 10 13 15 13 13 12 9 7 5 5 4 3 3 2
10 10 10 11 13 13 12 11 12 10 12 2 3 3 0 2 2 4 1 2 2 2 1 4 3 2 4 4 2 1 2 1 4 3 3 3 5 5 3 4 10 10 12 13 12 10 9 8 6 5 5 3 3 4
9 10 10 11 13 10 9 12 13 10 5 2 3 4 4 3 2 2 4 5 6 4 5 5 2 2 1 3 2 2 1 3 5 3 2 5 6 7 6 6 8 9 8 8 7 8 7 7 6 5 3 2 4 5
9 10 11 13 6 8 12 14 13 5 4 3 3 3 4 2 2 2 3 3 4 5 4 3 2 3 2 3 3 2 3 2 4 1 4 5 7 8 8 7 7 8 6 6 6 5 5 6 6 5 4 4 4 4
9 14 3 3 8 12 13 11 3 1 2 3 4 5 4 4 4 3 4 3 2 2 2 3 4 3 3 2 4 5 4 1 3 3 3 7 7 5 6 8 4 4 2 2 4 4 5 5 6 5 4 5 5 5
5 4 3 6 11 15 6 4 2 4 3 3 5 5 6 5 5 4 4 4 4 4 2 3 4 1 1 4 3 1 3 3 4 4 4 5 7 7 6 5 6 8 9 8 8 6 5 5 5 6 6 5 5 5
5 1 1 8 10 6 2 3 3 3 5 6 5 2 4 5 6 5 4 2 4 2 3 3 4 3 3 3 3 2 1 1 2 1 3 5 4 4 5 7 7 8 7 6 5 5 6 6 6 7 6 5 6 8
6 8 10 11 6 3 3 3 3 4 5 3 5 5 5 6 6 7 7 5 5 5 4 3 5 3 2 3 6 5 3 2 4 1 2 4 5 6 6 5 5 4 4 5 5 6 5 5 3 2 4 4 5 5
10 13 12 6 5 2 4 3 2 4 4 3 4 5 5 5 5 5 5 5 5 2 4 4 4 6 4 4 4 4 3 1 2 3 4 2 3 5 5 5 4 6 5 6 6 3 5 6 6 6 4 3 6 6
4 2 2 3 2 3 3 3 4 3 5 4 4 5 5 3 6 5 4 3 5 5 7 5 4 4 3 3 2 2 2 3 4 5 5 4 3 3 6 4 3 4 4 4 5 5 5 4 3 3 3 2 3 3
1 2 2 3 3 5 4 3 4 4 4 4 4 4 5 4 3 3 2 6 4 5 3 2 2 2 1 3 4 1 4 0 1 3 3 4 5 3 4 5 4 4 5 5 5 3 3 3 3 3 3 3 4 2
3 4 3 3 4 2 4 2 4 4 5 2 2 4 4 3 2 3 4 3 3 1 1 2 2 2 3 4 3 3 1 1 3 2 2 1 1 1 3 4 3 4 4 4 3 4 2 4 3 6 5 6 3 3
1 3 4 4 5 4 2 4 4 4 4 4 4 4 3 1 2 4 3 3 3 4 5 5 6 5 5 4 4 3 3 2 1 2 2 3 3 4 4 4 4 4 4 3 4 4 4 3 1 6 7 4 4 4
3 3 4 4 4 4 4 4 5 5 5 5 4 3 2 2 3 3 2 2 4 4 5 6 6 6 6 5 4 4 4 5 4 3 4 4 3 3 5 5 5 6 4 5 6 6 5 3 2 3 3 2 4 5
4 6 6 4 3 5 5 5 5 5 3 4 4 2 2 3 4 3 1 2 2 4 6 6 7 7 6 4 4 5 5 5 4 4 3 4 4 4 3 3 3 3 6 6 4 5 5 4 1 1 3 4 6 9
4 6 5 3 4 3 5 6 7 5 4 4 3 3 3 4 2 2 4 3 2 2 5 6 7 7 6 7 5 4 3 4 6 4 2 3 4 3 4 4 4 4 4 6 5 5 4 5 5 3 4 4 4 5
4 3 6 4 6 5 5 4 5 5 4 2 3 5 2 1 3 1 3 3 4 1 4 6 7 6 6 5 5 5 5 6 6 5 4 6 6 5 5 4 2 3 2 3 3 3 3 4 4 5 5 6 7 8
5 3 4 7 7 6 7 7 5 3 0 3 3 1 1 1 2 5 3 3 3 4 5 7 8 8 8 7 6 6 6 5 7 8 9 7 7 8 7 6 6 6 6 7 5 4 1 3 4 6 9 9 9 8
5 6 5 6 7 8 6 7 6 7 5 5 5 6 8 8 6 6 8 7 6 5 6 8 8 9 10 10 9 10 8 6 6 7 5 3 2 6 5 6 7 8 7 6 7 9 2 6 7 7 8 8 7 5
4 5 4 8 10 8 9 9 9 9 10 10 9 10 11 10 10 10 10 9 9 8 7 7 8 10 10 10 10 10 9 7 7 6 5 4 2 4 4 4 5 7 8 9 8 7 7 7 7 7 8 5 6 5
6 9 6 6 7 5 6 7 8 10 10 11 12 12 12 12 14 11 10 9 10 10 10 9 9 9 10 9 9 9 9 6 3 5 6 5 5 5 5 6 6 6 8 10 10 9 9 9 9 8 8 7 6 5
9 8 8 8 6 5 7 6 5 6 8 10 10 11 11 11 13 10 8 4 7 9 9 9 9 8 8 10 11 9 9 7 5 1 2 3 4 4 5 5 4 5 7 7 8 10 10 10 10 9 8 7 7 6
Wind_Direction
339 342 343 343 344 346 346 346 343 343 345 348 350 353 354 357 1 340 347 2 331 307 296 279 301 311 294 270 299 53 228 192 228 242 260 231 268 247 270 279 278 253 252 252 243 263 250 107 151 228 43 134 146 153
332 336 337 339 341 340 341 339 336 338 342 344 344 347 350 351 355 335 290 25 325 258 325 315 288 288 289 303 307 298 347 7 12 271 225 319 232 209 261 248 178 244 269 321 325 17 360 270 325 98 135 136 134 133
327 330 333 337 338 337 336 336 336 336 340 341 342 343 342 344 350 344 314 333 259 265 252 235 202 136 242 241 266 284 135 9 134 344 334 334 259 281 237 236 236 199 225 252 227 133 96 126 128 125 124 122 124 122
321 326 330 334 334 333 335 334 332 331 332 331 333 337 335 334 336 321 314 350 279 295 285 99 166 260 266 222 234 259 319 208 257 248 261 269 268 203 267 316 260 9 155 195 182 142 138 141 126 121 120 118 114 105
320 324 326 330 329 331 332 329 327 329 329 329 329 331 331 323 318 275 263 283 350 324 327 308 306 10 219 198 213 219 242 271 253 232 230 242 289 255 211 280 254 178 221 215 273 159 232 151 141 134 125 118 115 118
313 319 324 327 328 330 330 328 325 325 323 324 324 325 322 309 304 257 202 150 286 332 280 293 28 243 245 213 209 211 237 262 256 269 253 229 359 263 258 250 250 209 242 265 300 160 144 144 142 131 126 120 115 109
314 317 322 323 325 328 327 324 322 321 319 319 319 319 317 282 255 305 7 23 344 295 265 285 257 111 285 211 193 208 207 246 270 251 242 257 194 232 257 258 258 226 203 173 162 147 139 149 141 126 121 114 116 101
307 314 317 322 325 326 324 323 322 319 316 318 316 312 302 189 267 207 107 244 253 274 257 281 276 219 341 216 212 202 236 209 196 257 209 241 167 236 256 251 238 177 157 160 161 165 144 125 131 127 126 129 121 85
302 309 317 321 323 323 323 324 324 319 318 317 315 167 192 224 224 72 341 206 245 292 300 272 301 21 347 249 288 185 255 238 123 243 227 228 228 216 243 241 211 173 164 153 167 131 143 140 130 132 133 128 301 65
296 303 309 318 322 321 322 326 326 320 316 300 258 242 158 56 343 265 173 199 192 180 223 264 310 269 328 285 243 3 221 256 239 185 107 229 252 239 197 317 218 174 154 158 145 150 141 140 141 146 158 78 27 4
291 302 308 315 321 322 322 325 325 319 290 348 348 335 348 318 238 218 244 235 162 216 190 258 296 297 139 290 309 274 263 276 259 99 238 224 237 195 114 217 197 172 164 170 159 145 146 143 149 155 168 173 188 246
286 295 304 312 317 321 326 329 331 330 351 326 319 291 275 247 232 260 223 164 245 359 230 272 317 274 269 295 259 205 265 232 256 344 240 248 77 29 275 199 176 176 167 155 149 140 132 125 125 137 159 186 209 212
283 291 298 306 311 314 312 320 323 306 280 208 230 246 10 187 318 253 175 120 316 316 273 306 279 247 188 227 260 290 293 314 303 246 243 17 55 53 76 160 159 153 152 140 129 127 126 130 137 164 168 188 216 231
278 285 293 298 307 306 308 316 319 311 264 276 299 303 253 195 240 334 1 5 353 308 314 314 271 266 332 238 204 225 206 238 228 227 274 57 101 97 84 88 121 113 125 138 137 138 148 155 163 168 200 212 229 232
278 285 292 283 280 314 316 314 308 252 271 265 232 242 221 321 256 335 311 304 312 315 315 282 255 262 217 231 220 251 223 242 278 218 56 99 131 120 108 114 133 140 142 145 147 158 176 168 173 190 195 203 213 245
298 290 224 356 317 315 315 294 227 302 245 262 241 251 220 252 226 204 247 300 341 320 245 225 269 239 220 254 221 216 241 237 62 61 82 135 152 148 143 125 83 16 5 178 197 190 183 190 199 204 185 214 226 243
285 254 92 329 321 303 292 266 177 230 249 232 234 230 273 290 272 280 279 317 339 303 286 286 255 332 107 240 241 259 357 70 89 85 110 147 170 179 181 183 191 199 204 203 197 196 201 195 203 217 233 237 252 258
254 111 327 329 327 306 230 230 247 239 251 233 246 235 226 267 285 274 254 288 289 307 283 332 311 262 268 288 349 28 0 332 318 88 140 152 183 194 197 196 191 199 191 189 194 189 191 202 211 217 233 252 275 259
312 324 324 315 308 310 284 218 231 272 263 287 269 263 266 274 276 278 277 271 269 290 288 259 268 266 299 334 315 311 304 287 305 38 134 189 191 182 182 195 193 182 177 173 180 209 174 201 261 287 284 279 277 305
271 282 283 287 215 267 260 219 238 264 271 15 274 262 258 270 300 281 269 248 247 242 249 242 265 316 339 310 306 303 327 355 246 179 129 135 154 152 162 187 162 131 189 167 186 226 198 218 215 219 243 310 312 318
234 121 240 223 207 231 283 281 242 271 309 271 307 286 279 240 245 244 243 196 225 239 247 255 293 291 318 313 282 330 45 325 333 334 59 128 206 184 162 173 191 218 203 163 202 191 228 237 216 258 267 291 2 307
144 276 260 173 254 186 255 229 285 327 261 287 281 235 266 250 221 187 145 215 247 250 250 283 307 351 151 196 131 240 58 341 70 126 174 135 162 202 228 165 204 205 211 207 222 249 220 240 242 243 264 271 232 320
262 213 222 223 253 205 262 226 249 221 252 247 224 241 219 217 178 180 245 225 267 74 228 211 130 162 113 123 151 158 171 299 156 121 149 211 120 155 195 188 222 271 245 201 225 247 251 79 207 250 255 235 265 314
172 241 232 229 208 258 226 233 211 256 243 235 233 244 205 194 175 236 248 234 110 130 169 170 181 159 167 193 212 154 178 220 190 170 203 241 210 167 220 231 224 225 256 278 232 226 245 270 317 226 224 239 270 290
232 231 199 246 236 239 230 232 217 212 241 229 247 233 162 187 242 237 246 117 157 169 159 177 198 206 197 183 168 178 193 246 255 258 166 221 240 198 208 213 222 240 213 200 203 221 223 222 247 274 301 281 336 340
234 197 199 218 203 222 202 240 218 214 236 252 233 234 195 233 241 240 196 63 84 161 175 184 192 194 211 222 200 181 193 210 248 260 216 211 221 264 315 329 318 183 190 227 243 224 207 202 201 228 222 175 192 264
236 227 197 231 268 251 260 247 247 265 250 231 223 210 212 224 200 42 63 31 339 147 175 184 196 209 208 183 197 218 216 209 236 301 332 226 230 236 284 331 48 86 165 192 212 239 246 250 241 243 281 282 302 317
265 280 226 215 220 227 246 271 249 225 224 220 243 225 241 243 107 36 16 358 341 318 207 196 208 217 224 215 212 199 214 226 237 243 242 235 227 221 210 221 171 92 232 180 195 183 194 206 219 275 304 314 317 316
225 224 251 238 224 224 222 223 248 242 82 250 255 274 322 9 15 308 334 302 277 267 226 212 207 212 220 225 238 248 251 249 239 232 243 265 180 175 183 198 171 187 203 170 192 284 215 251 270 293 309 311 312 305
225 202 226 221 222 223 229 217 251 267 274 294 311 289 273 267 269 287 290 282 276 253 243 236 227 217 223 231 231 221 209 229 240 271 285 269 266 123 159 182 197 196 200 214 202 178 176 243 238 248 261 283 304 314
148 198 236 261 259 248 249 262 267 265 264 262 263 265 273 284 284 277 267 259 260 258 245 243 235 233 231 234 235 233 235 207 212 249 273 291 278 159 184 182 191 203 203 212 227 233 231 222 246 263 275 304 331 271
204 215 219 233 249 225 235 249 247 243 249 244 246 247 251 255 261 279 261 241 236 237 232 242 249 240 227 228 236 224 232 265 159 191 218 237 226 222 200 208 215 215 215 217 223 231 231 238 257 280 314 311 332 297
215 232 232 261 253 231 208 219 242 251 231 236 243 240 242 244 253 266 276 247 253 250 239 230 223 228 255 234 225 222 219 230 219 266 265 269 332 324 264 221 191 207 219 233 236 234 231 243 258 271 285 303 316 292